Location: Recife
(8.0585°S, 34.8848°W)
Time: 21:05:27
(UTC-03:00)

Explorer 11/Cluster Stage 4 - Pass Details

Date: 23 April 2026
Orbit: 463 x 1174 km, 28.8° (Epoch: 16 May)

Event Time Altitude Azimuth Distance (km) Brightness Sun altitude
Rises 16:19:32 0° 296° (WNW) 4,035 12.1 12.2°
Reaches altitude 10° 16:22:28 10° 294° (WNW) 3,053 12.1 11.5°
Maximum altitude 16:30:08 75° 209° (SSW) 1,113 7.6 9.7°
Drops below altitude 10° 16:36:52 10° 124° (SE) 2,698 8.8 8.1°
Sets 16:39:20 0° 122° (ESE) 3,544 9.3 7.5°
